Weather History for San Jose, CA

Change the Weather History Date:

Tuesday, July 16, 2013

  Actual Average Record
Temperature  
Mean Temperature 65 °F 71 °F  
Max Temperature 72 °F 84 °F 100 °F (1995)
Min Temperature 57 °F 59 °F 42 °F (1902)
Degree Days  
Heating Degree Days 0 0  
Month to date heating degree days 0 0  
Since 1 June heating degree days 12 15  
Since 1 July heating degree days 0 0  
Cooling Degree Days 0 6  
Month to date cooling degree days 73 96  
Year to date cooling degree days 245 281  
Since 1 June cooling degree days 178 211  
Growing Degree Days 14 (Base 50)    
Moisture  
Dew Point 52 °F    
Average Humidity 67    
Maximum Humidity 80    
Minimum Humidity 53    
Precipitation  
Precipitation 0.00 in 0.00 in 0.15 in (1990)
Month to date precipitation 0.00 0.00  
Year to date precipitation 2.24 9.89  
Since 1 July precipitation 0.00 0.00  
Sea Level Pressure  
Sea Level Pressure 29.96 in    
Wind  
Wind Speed 10 mph (WSW)    
Max Wind Speed 18 mph    
Max Gust Speed 23 mph    
Visibility 10 miles    
Events      
T = Trace of Precipitation, MM = Missing Value Source: NWS Daily Summary

Daily Weather History Graph

Daily Weather History Graph

Search for Another Location

Airport:

Trip Planner

Search our weather history database for the weather conditions in past years. The results will help you decide how hot, cold, wet, or windy it might be!

Date:

Astronomy

Jul. 16, 2013 Rise Set
Actual Time 5:59 AM PDT 8:27 PM PDT
Civil Twilight 5:29 AM PDT 8:57 PM PDT
Nautical Twilight 4:52 AM PDT 9:34 PM PDT
Astronomical Twilight 4:11 AM PDT 10:15 PM PDT
Moon 2:17 PM PDT (7/16) 12:29 AM PDT (7/16)
Length of Visible Light 15h 27m
Length of Day
14h 27m
First Quarter, 57% of the Moon is Illuminated
Jul 16
First Quarter
Jul 22
Full
Jul 29
Last Quarter
Aug 6
New
Aug 14
First Quarter

Hourly Weather History & Observations

Time (PDT) Temp. Dew Point Humidity Pressure Visibility Wind Dir Wind Speed Gust Speed Precip Events Conditions
12:53 AM 59.0 °F 52.0 °F 78% 29.88 in 10.0 mi ESE 6.9 mph - N/A   Mostly Cloudy
1:07 AM 57.2 °F 51.8 °F 82% 29.88 in 10.0 mi ESE 10.4 mph - N/A   Scattered Clouds
1:49 AM 59.0 °F 51.8 °F 77% 29.89 in 10.0 mi ESE 6.9 mph - N/A   Mostly Cloudy
1:53 AM 59.0 °F 52.0 °F 78% 29.88 in 10.0 mi SE 10.4 mph - N/A   Mostly Cloudy
2:53 AM 57.9 °F 52.0 °F 81% 29.89 in 10.0 mi SSE 8.1 mph - N/A   Overcast
3:09 AM 57.2 °F 51.8 °F 82% 29.89 in 10.0 mi SE 6.9 mph - N/A   Overcast
3:53 AM 57.9 °F 52.0 °F 81% 29.89 in 10.0 mi ESE 9.2 mph - N/A   Overcast
4:51 AM 57.2 °F 51.8 °F 82% 29.90 in 10.0 mi ESE 10.4 mph - N/A   Overcast
4:53 AM 57.0 °F 51.1 °F 81% 29.90 in 10.0 mi ESE 12.7 mph - N/A   Overcast
5:53 AM 57.0 °F 51.1 °F 81% 29.92 in 10.0 mi ESE 8.1 mph - N/A   Overcast
6:53 AM 57.9 °F 51.1 °F 78% 29.93 in 10.0 mi SSE 6.9 mph - N/A   Overcast
7:53 AM 57.9 °F 50.0 °F 75% 29.95 in 10.0 mi ESE 5.8 mph - N/A   Overcast
8:53 AM 59.0 °F 50.0 °F 72% 29.97 in 10.0 mi SSE 5.8 mph - N/A   Overcast
9:53 AM 60.1 °F 50.0 °F 69% 29.97 in 10.0 mi SE 4.6 mph - N/A   Mostly Cloudy
10:41 AM 62.6 °F 50.0 °F 63% 29.98 in 10.0 mi Calm Calm - N/A   Scattered Clouds
10:53 AM 64.9 °F 51.1 °F 61% 29.98 in 10.0 mi Variable 3.5 mph - N/A   Scattered Clouds
11:53 AM 69.1 °F 51.1 °F 53% 29.99 in 10.0 mi NW 9.2 mph - N/A   Partly Cloudy
12:53 PM 69.1 °F 51.1 °F 53% 29.99 in 10.0 mi NW 11.5 mph - N/A   Clear
1:53 PM 70.0 °F 52.0 °F 53% 29.99 in 10.0 mi WNW 13.8 mph 18.4 mph N/A   Clear
2:53 PM 71.1 °F 53.1 °F 53% 29.99 in 10.0 mi WNW 10.4 mph - N/A   Clear
3:53 PM 71.1 °F 53.1 °F 53% 29.98 in 10.0 mi WNW 11.5 mph - N/A   Clear
4:53 PM 71.1 °F 53.1 °F 53% 29.97 in 10.0 mi NW 11.5 mph - N/A   Clear
5:53 PM 71.1 °F 54.0 °F 55% 29.97 in 10.0 mi WNW 17.3 mph - N/A   Clear
6:53 PM 66.9 °F 55.0 °F 66% 29.98 in 10.0 mi NW 17.3 mph - N/A   Clear
7:53 PM 64.9 °F 55.0 °F 70% 29.99 in 10.0 mi WNW 13.8 mph - N/A   Clear
8:53 PM 63.0 °F 55.0 °F 75% 30.01 in 10.0 mi NW 12.7 mph - N/A   Partly Cloudy
9:53 PM 62.1 °F 54.0 °F 75% 30.03 in 10.0 mi NW 11.5 mph - N/A   Scattered Clouds
10:53 PM 61.0 °F 54.0 °F 78% 30.04 in 10.0 mi WNW 11.5 mph - N/A   Scattered Clouds
11:45 PM 60.8 °F 53.6 °F 77% 30.05 in 10.0 mi WNW 6.9 mph - N/A   Mostly Cloudy
11:53 PM 61.0 °F 54.0 °F 78% 30.05 in 10.0 mi WNW 9.2 mph - N/A   Mostly Cloudy